Regional Weather Roundup
Issued by NWS

Home | Current Version | Previous Version | Graphics & Text | Print | Product List | Glossary On
Versions: 1 2 3 4 5 6 7 8 9 10 11 12 13 14 15 16 17 18 19 20 21 22 23 24 25 26 27 28 29 30 31 32 33 34 35 36 37 38 39 40 41 42 43 44 45 46 47 48 49 50
000
ASUS44 KMEG 190010
RWRTN
TENNESSEE HOURLY STATE WEATHER ROUNDUP
NATIONAL WEATHER SERVICE MEMPHIS TN
700 PM CDT FRI APR 18 2014

TNZ002-004-019-021-049-052-054-088>092-190100-
WEST TENNESSEE

CITY           SKY/WX    TMP DP  RH WIND       PRES   REMARKS
MEMPHIS INTL   MOCLDY    70  50  49 NE10      30.15S
NWS MEMPHIS      N/A     69 N/A N/A MISG        N/A
JACKSON        CLOUDY    68  48  48 NE5       30.17R
DYERSBURG      CLOUDY    68  45  42 E5        30.18S
UNION CITY     MOCLDY    68  46  45 CALM      30.16F
PARIS          PTCLDY    64  47  54 E3        30.18S
LEXINGTON      CLOUDY    68  46  45 NE8       30.16S
SAVANNAH       MOCLDY    67  49  52 CALM      30.17R
$$

TNZ008-025-027-028-033-062-065-066-190100-
NORTH MIDDLE TENNESSEE

CITY           SKY/WX    TMP DP  RH WIND       PRES   REMARKS
NASHVILLE      CLOUDY    66  46  48 NE3       30.18S
DICKSON        CLOUDY    64  45  48 NE5       30.18S
PORTLAND       PTCLDY    64  46  52 E3        30.18S
CLARKSVILLE    MOCLDY    69  45  41 CALM      30.17S
SMYRNA         CLOUDY    64  47  54 CALM      30.18F
MURFREESBORO   CLOUDY    66  46  48 N5        30.17F
COOKEVILLE     CLEAR     63  46  55 CALM      30.17S
GALLATIN       CLOUDY    66  48  52 CALM      30.19S
CROSSVILLE     CLOUDY    60  39  45 VRB5      30.20S
$$

TNZ061-075-076-078-094-096-097-190100-
SOUTH MIDDLE TENNESSEE

CITY           SKY/WX    TMP DP  RH WIND       PRES   REMARKS
LEWISBURG      CLOUDY    62  48  60 N3        30.17F
FAYETTEVILLE   CLOUDY    61  44  53 CALM      30.17F
TULLAHOMA      CLEAR     63  43  48 NE3       30.18F
WINCHESTER     CLEAR     61  46  59 NE3       30.17F
MCMINNVILLE    CLEAR     61  48  63 CALM      30.18S
COLUMBIA       CLEAR     63  54  72 NE6       30.16F
SHELBYVILLE    CLOUDY    63  48  59 N3        30.19S
$$

TNZ017-018-042-046-047-190100-
NORTHEAST TENNESSEE

CITY           SKY/WX    TMP DP  RH WIND       PRES   REMARKS
TRI CITIES     CLOUDY    58  37  45 CALM      30.22F
ELIZABETHTON   CLEAR     54  43  66 CALM      30.23S
$$

TNZ012-013-036-069-073-074-190100-
CENTRAL EAST TENNESSEE

CITY           SKY/WX    TMP DP  RH WIND       PRES   REMARKS
KNOXVILLE      CLOUDY    58  41  53 NE6       30.18S
OAK RIDGE      CLOUDY    61  40  45 E3        30.20S
$$

TNZ083-085-099-190100-
SOUTHEAST TENNESSEE

CITY           SKY/WX    TMP DP  RH WIND       PRES   REMARKS
CHATTANOOGA    CLOUDY    62  42  47 N6        30.17F
$$

SKY/WX REPORTED AS FAIR MEANS FEW OR NO CLOUDS BELOW
12 THOUSAND FEET.




USA.gov is the U.S. government's official web portal to all federal, state and local government web resources and services.